Time,TemperatureF,DewpointF,PressureIn,WindDirection,WindDirectionDegrees,WindSpeedMPH,WindSpeedGustMPH,Humidity,HourlyPrecipIn,Conditions,Clouds,dailyrainin,SolarRadiationWatts/m^2,SoftwareType,DateUTC
2013-10-24 00:04:00,45.0,34.0,-100.00,North,4,3.0,8.0,66,0.00,,,0.00,0.000000,,2013-10-24 04:04:00,
2013-10-24 00:15:00,45.0,34.0,-100.00,North,4,3.0,8.0,66,0.00,,,0.00,0.000000,,2013-10-24 04:15:00,
2013-10-24 00:24:00,45.0,34.0,-100.00,North,4,3.0,8.0,66,0.00,,,0.00,0.000000,,2013-10-24 04:24:00,
2013-10-24 00:54:00,44.0,35.0,-100.00,North,2,3.0,6.0,70,0.00,,,0.00,0.000000,,2013-10-24 04:54:00,
2013-10-24 01:04:00,44.0,35.0,-100.00,North,2,3.0,6.0,70,0.00,,,0.00,0.000000,,2013-10-24 05:04:00,
2013-10-24 01:13:00,44.0,35.0,-100.00,North,2,3.0,6.0,70,0.00,,,0.00,0.000000,,2013-10-24 05:13:00,
2013-10-24 01:22:00,44.0,35.0,-100.00,North,2,3.0,6.0,70,0.00,,,0.00,0.000000,,2013-10-24 05:22:00,
2013-10-24 01:53:00,43.0,34.0,-100.00,WNW,289,2.0,6.0,70,0.00,,,0.00,0.000000,,2013-10-24 05:53:00,
2013-10-24 02:03:00,43.0,34.0,-100.00,WNW,289,2.0,6.0,70,0.00,,,0.00,0.000000,,2013-10-24 06:03:00,
2013-10-24 02:12:00,43.0,34.0,-100.00,WNW,289,2.0,6.0,70,0.00,,,0.00,0.000000,,2013-10-24 06:12:00,
2013-10-24 02:22:00,43.0,34.0,-100.00,WNW,289,2.0,6.0,70,0.00,,,0.00,0.000000,,2013-10-24 06:22:00,
2013-10-24 02:52:00,44.0,32.0,-100.00,WNW,292,3.0,8.0,63,0.00,,,0.00,0.000000,,2013-10-24 06:52:00,
2013-10-24 03:02:00,44.0,32.0,-100.00,WNW,292,3.0,8.0,63,0.00,,,0.00,0.000000,,2013-10-24 07:02:00,
2013-10-24 03:12:00,44.0,32.0,-100.00,WNW,292,3.0,8.0,63,0.00,,,0.00,0.000000,,2013-10-24 07:12:00,
2013-10-24 03:22:00,44.0,32.0,-100.00,WNW,292,3.0,8.0,63,0.00,,,0.00,0.000000,,2013-10-24 07:22:00,
2013-10-24 03:53:00,43.0,32.0,-100.00,North,349,2.0,6.0,66,0.00,,,0.00,0.000000,,2013-10-24 07:53:00,
2013-10-24 04:02:00,43.0,32.0,-100.00,North,349,2.0,6.0,66,0.00,,,0.00,0.000000,,2013-10-24 08:02:00,
2013-10-24 04:12:00,43.0,32.0,-100.00,North,349,2.0,6.0,66,0.00,,,0.00,0.000000,,2013-10-24 08:12:00,
2013-10-24 04:22:00,43.0,32.0,-100.00,North,349,2.0,6.0,66,0.00,,,0.00,0.000000,,2013-10-24 08:22:00,
2013-10-24 04:53:00,42.0,31.0,-100.00,North,4,2.0,7.0,66,0.00,,,0.00,0.000000,,2013-10-24 08:53:00,
2013-10-24 05:02:00,42.0,31.0,-100.00,North,4,2.0,7.0,66,0.00,,,0.00,0.000000,,2013-10-24 09:02:00,
2013-10-24 05:12:00,42.0,31.0,-100.00,North,4,2.0,7.0,66,0.00,,,0.00,0.000000,,2013-10-24 09:12:00,
2013-10-24 05:22:00,42.0,31.0,-100.00,North,4,2.0,7.0,66,0.00,,,0.00,0.000000,,2013-10-24 09:22:00,
2013-10-24 05:53:00,39.0,31.0,-100.00,North,3,2.0,6.0,73,0.00,,,0.00,0.000000,,2013-10-24 09:53:00,
2013-10-24 06:03:00,39.0,31.0,-100.00,North,3,2.0,6.0,73,0.00,,,0.00,0.000000,,2013-10-24 10:03:00,
2013-10-24 06:13:00,39.0,31.0,-100.00,North,3,2.0,6.0,73,0.00,,,0.00,0.000000,,2013-10-24 10:13:00,
2013-10-24 06:23:00,39.0,31.0,-100.00,North,3,2.0,6.0,73,0.00,,,0.00,0.000000,,2013-10-24 10:23:00,
2013-10-24 06:53:00,38.0,30.0,-100.00,WNW,296,2.0,7.0,74,0.00,,,0.00,0.000000,,2013-10-24 10:53:00,
2013-10-24 07:03:00,38.0,30.0,-100.00,WNW,296,2.0,7.0,74,0.00,,,0.00,0.000000,,2013-10-24 11:03:00,
2013-10-24 07:12:00,38.0,30.0,-100.00,WNW,296,2.0,7.0,74,0.00,,,0.00,0.000000,,2013-10-24 11:12:00,
2013-10-24 07:22:00,38.0,30.0,-100.00,WNW,296,2.0,7.0,74,0.00,,,0.00,0.000000,,2013-10-24 11:22:00,
2013-10-24 07:53:00,37.0,31.0,-100.00,West,273,3.0,6.0,79,0.00,,,0.00,3.000000,,2013-10-24 11:53:00,
2013-10-24 08:01:00,37.0,31.0,-100.00,West,273,3.0,6.0,79,0.00,,,0.00,3.000000,,2013-10-24 12:01:00,
2013-10-24 08:12:00,37.0,31.0,-100.00,West,273,3.0,6.0,79,0.00,,,0.00,3.000000,,2013-10-24 12:12:00,
2013-10-24 08:22:00,37.0,31.0,-100.00,West,273,3.0,6.0,79,0.00,,,0.00,3.000000,,2013-10-24 12:22:00,
2013-10-24 08:52:00,43.0,34.0,-100.00,West,262,4.0,10.0,69,0.00,,,0.00,80.000000,,2013-10-24 12:52:00,
2013-10-24 09:01:00,43.0,34.0,-100.00,West,262,4.0,10.0,69,0.00,,,0.00,80.000000,,2013-10-24 13:01:00,
2013-10-24 09:12:00,43.0,34.0,-100.00,West,262,4.0,10.0,69,0.00,,,0.00,80.000000,,2013-10-24 13:12:00,
2013-10-24 09:22:00,43.0,34.0,-100.00,West,262,4.0,10.0,69,0.00,,,0.00,80.000000,,2013-10-24 13:22:00,
2013-10-24 09:52:00,46.0,31.0,-100.00,West,263,6.0,14.0,56,0.00,,,0.00,268.000000,,2013-10-24 13:52:00,
2013-10-24 10:01:00,46.0,31.0,-100.00,West,263,6.0,14.0,56,0.00,,,0.00,268.000000,,2013-10-24 14:01:00,
2013-10-24 10:11:00,46.0,31.0,-100.00,West,263,6.0,14.0,56,0.00,,,0.00,268.000000,,2013-10-24 14:11:00,
2013-10-24 10:22:00,46.0,31.0,-100.00,West,263,6.0,14.0,56,0.00,,,0.00,268.000000,,2013-10-24 14:22:00,
2013-10-24 10:52:00,50.0,27.0,-100.00,North,2,7.0,20.0,41,0.00,,,0.00,411.000000,,2013-10-24 14:52:00,
2013-10-24 11:02:00,50.0,27.0,-100.00,North,2,7.0,20.0,41,0.00,,,0.00,411.000000,,2013-10-24 15:02:00,
2013-10-24 11:11:00,50.0,27.0,-100.00,North,2,7.0,20.0,41,0.00,,,0.00,411.000000,,2013-10-24 15:11:00,
2013-10-24 11:21:00,50.0,27.0,-100.00,North,2,7.0,20.0,41,0.00,,,0.00,411.000000,,2013-10-24 15:21:00,
2013-10-24 11:53:00,52.0,27.0,-100.00,West,269,7.0,21.0,37,0.00,,,0.00,515.000000,,2013-10-24 15:53:00,
2013-10-24 12:03:00,52.0,27.0,-100.00,West,269,7.0,21.0,37,0.00,,,0.00,515.000000,,2013-10-24 16:03:00,
2013-10-24 12:13:00,52.0,27.0,-100.00,West,269,7.0,21.0,37,0.00,,,0.00,515.000000,,2013-10-24 16:13:00,
2013-10-24 12:23:00,52.0,27.0,-100.00,West,269,7.0,21.0,37,0.00,,,0.00,515.000000,,2013-10-24 16:23:00,
2013-10-24 12:53:00,54.0,28.0,-100.00,WNW,288,7.0,17.0,36,0.00,,,0.00,626.000000,,2013-10-24 16:53:00,
2013-10-24 13:03:00,54.0,28.0,-100.00,WNW,288,7.0,17.0,36,0.00,,,0.00,626.000000,,2013-10-24 17:03:00,
2013-10-24 13:12:00,54.0,28.0,-100.00,WNW,288,7.0,17.0,36,0.00,,,0.00,626.000000,,2013-10-24 17:12:00,
2013-10-24 13:22:00,54.0,28.0,-100.00,WNW,288,7.0,17.0,36,0.00,,,0.00,626.000000,,2013-10-24 17:22:00,
2013-10-24 13:52:00,55.0,28.0,-100.00,West,279,7.0,17.0,35,0.00,,,0.00,451.000000,,2013-10-24 17:52:00,
2013-10-24 14:02:00,55.0,28.0,-100.00,West,279,7.0,17.0,35,0.00,,,0.00,451.000000,,2013-10-24 18:02:00,
2013-10-24 14:12:00,55.0,28.0,-100.00,West,279,7.0,17.0,35,0.00,,,0.00,451.000000,,2013-10-24 18:12:00,
2013-10-24 14:23:00,55.0,28.0,-100.00,West,279,7.0,17.0,35,0.00,,,0.00,451.000000,,2013-10-24 18:23:00,
2013-10-24 14:53:00,54.0,26.0,-100.00,NNW,331,9.0,25.0,33,0.00,,,0.00,525.000000,,2013-10-24 18:53:00,
2013-10-24 15:02:00,54.0,26.0,-100.00,NNW,331,9.0,25.0,33,0.00,,,0.00,525.000000,,2013-10-24 19:02:00,
2013-10-24 15:12:00,54.0,26.0,-100.00,NNW,331,9.0,25.0,33,0.00,,,0.00,525.000000,,2013-10-24 19:12:00,
2013-10-24 15:22:00,54.0,26.0,-100.00,NNW,331,9.0,25.0,33,0.00,,,0.00,525.000000,,2013-10-24 19:22:00,
2013-10-24 15:53:00,51.0,25.0,-100.00,West,279,7.0,24.0,36,0.00,,,0.00,299.000000,,2013-10-24 19:53:00,
2013-10-24 16:02:00,51.0,25.0,-100.00,West,279,7.0,24.0,36,0.00,,,0.00,299.000000,,2013-10-24 20:02:00,
2013-10-24 16:12:00,51.0,25.0,-100.00,West,279,7.0,24.0,36,0.00,,,0.00,299.000000,,2013-10-24 20:12:00,
2013-10-24 16:23:00,51.0,25.0,-100.00,West,279,7.0,24.0,36,0.00,,,0.00,299.000000,,2013-10-24 20:23:00,
2013-10-24 16:53:00,52.0,25.0,-100.00,NNW,329,7.0,22.0,35,0.00,,,0.00,229.000000,,2013-10-24 20:53:00,
2013-10-24 17:02:00,52.0,25.0,-100.00,NNW,329,7.0,22.0,35,0.00,,,0.00,229.000000,,2013-10-24 21:02:00,
2013-10-24 17:12:00,52.0,25.0,-100.00,NNW,329,7.0,22.0,35,0.00,,,0.00,229.000000,,2013-10-24 21:12:00,
2013-10-24 17:22:00,52.0,25.0,-100.00,NNW,329,7.0,22.0,35,0.00,,,0.00,229.000000,,2013-10-24 21:22:00,
2013-10-24 17:54:00,48.0,26.0,-100.00,West,270,6.0,20.0,42,0.00,,,0.00,42.000000,,2013-10-24 21:54:00,
2013-10-24 18:04:00,48.0,26.0,-100.00,West,270,6.0,20.0,42,0.00,,,0.00,42.000000,,2013-10-24 22:04:00,
2013-10-24 18:14:00,48.0,26.0,-100.00,West,270,6.0,20.0,42,0.00,,,0.00,42.000000,,2013-10-24 22:14:00,
2013-10-24 18:24:00,48.0,26.0,-100.00,West,270,6.0,20.0,42,0.00,,,0.00,42.000000,,2013-10-24 22:24:00,
2013-10-24 18:55:00,47.0,27.0,-100.00,WNW,291,5.0,12.0,45,0.00,,,0.00,3.000000,,2013-10-24 22:55:00,
2013-10-24 19:03:00,47.0,27.0,-100.00,WNW,291,5.0,12.0,45,0.00,,,0.00,3.000000,,2013-10-24 23:03:00,
2013-10-24 19:13:00,47.0,27.0,-100.00,WNW,291,5.0,12.0,45,0.00,,,0.00,3.000000,,2013-10-24 23:13:00,
2013-10-24 19:22:00,47.0,27.0,-100.00,WNW,291,5.0,12.0,45,0.00,,,0.00,3.000000,,2013-10-24 23:22:00,
2013-10-24 19:53:00,47.0,27.0,-100.00,WSW,258,4.0,10.0,45,0.00,,,0.00,0.000000,,2013-10-24 23:53:00,
2013-10-24 20:02:00,47.0,27.0,-100.00,WSW,258,4.0,10.0,45,0.00,,,0.00,0.000000,,2013-10-25 00:02:00,
2013-10-24 20:12:00,47.0,27.0,-100.00,WSW,258,4.0,10.0,45,0.00,,,0.00,0.000000,,2013-10-25 00:12:00,
2013-10-24 20:22:00,47.0,27.0,-100.00,WSW,258,4.0,10.0,45,0.00,,,0.00,0.000000,,2013-10-25 00:22:00,
2013-10-24 20:52:00,45.0,27.0,-100.00,WSW,253,4.0,8.0,49,0.00,,,0.00,0.000000,,2013-10-25 00:52:00,
2013-10-24 21:02:00,45.0,27.0,-100.00,WSW,253,4.0,8.0,49,0.00,,,0.00,0.000000,,2013-10-25 01:02:00,
2013-10-24 21:12:00,45.0,27.0,-100.00,WSW,253,4.0,8.0,49,0.00,,,0.00,0.000000,,2013-10-25 01:12:00,
2013-10-24 21:22:00,45.0,27.0,-100.00,WSW,253,4.0,8.0,49,0.00,,,0.00,0.000000,,2013-10-25 01:22:00,
2013-10-24 21:54:00,44.0,27.0,-100.00,West,274,3.0,12.0,50,0.00,,,0.00,0.000000,,2013-10-25 01:54:00,
2013-10-24 22:02:00,44.0,27.0,-100.00,West,274,3.0,12.0,50,0.00,,,0.00,0.000000,,2013-10-25 02:02:00,
2013-10-24 22:12:00,44.0,27.0,-100.00,West,274,3.0,12.0,50,0.00,,,0.00,0.000000,,2013-10-25 02:12:00,
2013-10-24 22:23:00,44.0,27.0,-100.00,West,274,3.0,12.0,50,0.00,,,0.00,0.000000,,2013-10-25 02:23:00,
2013-10-24 22:52:00,43.0,28.0,-100.00,West,263,4.0,10.0,54,0.00,,,0.00,0.000000,,2013-10-25 02:52:00,
2013-10-24 23:03:00,43.0,28.0,-100.00,West,263,4.0,10.0,54,0.00,,,0.00,0.000000,,2013-10-25 03:03:00,
2013-10-24 23:12:00,43.0,28.0,-100.00,West,263,4.0,10.0,54,0.00,,,0.00,0.000000,,2013-10-25 03:12:00,
2013-10-24 23:23:00,43.0,28.0,-100.00,West,263,4.0,10.0,54,0.00,,,0.00,0.000000,,2013-10-25 03:23:00,
2013-10-24 23:55:00,42.0,28.0,-100.00,West,274,4.0,11.0,58,0.00,,,0.00,0.000000,,2013-10-25 03:55:00,